| time (UTC) | temp F | wind direction | speed MPH | gust MPH | rain 1hr in | rain 24hr in | rain mn in | humidity % | barometer mb |
| 20260507000017 | 68 | 79 | 0.0 | 9.0 | 0.00 | 0.00 | 0.00 | 49 | 1012.8 |
| 20260506234522 | 68 | 15 | 3.0 | 8.0 | 0.00 | 0.00 | 0.00 | 49 | 1012.7 |
| 20260506233105 | 68 | 83 | 1.0 | 9.0 | 0.00 | 0.00 | 0.00 | 49 | 1012.4 |
| 20260506231514 | 69 | 72 | 2.0 | 6.0 | 0.00 | 0.00 | 0.00 | 48 | 1012.3 |
| 20260506230020 | 69 | 50 | 3.0 | 10.0 | 0.00 | 0.00 | 0.00 | 48 | 1012.2 |
| 20260506224509 | 69 | 96 | 4.0 | 9.0 | 0.00 | 0.00 | 0.00 | 49 | 1012.0 |
| 20260506223111 | 69 | 353 | 1.0 | 8.0 | 0.00 | 0.00 | 0.00 | 48 | 1012.1 |
| 20260506221518 | 69 | 69 | 1.0 | 9.0 | 0.00 | 0.00 | 0.00 | 50 | 1012.0 |
| 20260506220031 | 68 | 86 | 4.0 | 11.0 | 0.00 | 0.00 | 0.00 | 49 | 1012.0 |
| 20260506214506 | 68 | 55 | 5.0 | 10.0 | 0.00 | 0.00 | 0.00 | 49 | 1012.1 |
| 20260506213104 | 68 | 79 | 4.0 | 10.0 | 0.00 | 0.00 | 0.00 | 50 | 1012.3 |
| 20260506211511 | 69 | 72 | 1.0 | 9.0 | 0.00 | 0.00 | 0.00 | 49 | 1012.4 |
| 20260506210022 | 68 | 70 | 4.0 | 10.0 | 0.00 | 0.00 | 0.00 | 49 | 1012.5 |
| 20260506204521 | 67 | 61 | 7.0 | 12.0 | 0.00 | 0.00 | 0.00 | 49 | 1012.7 |
| 20260506203102 | 68 | 354 | 4.0 | 8.0 | 0.00 | 0.00 | 0.00 | 50 | 1012.8 |
| 20260506201509 | 67 | 118 | 2.0 | 9.0 | 0.00 | 0.00 | 0.00 | 51 | 1012.8 |
| 20260506200022 | 66 | 72 | 4.0 | 11.0 | 0.00 | 0.00 | 0.00 | 53 | 1013.1 |
| 20260506194519 | 66 | 70 | 3.0 | 14.0 | 0.00 | 0.00 | 0.00 | 55 | 1013.0 |
| 20260506193104 | 65 | 55 | 4.0 | 10.0 | 0.00 | 0.00 | 0.00 | 55 | 1013.0 |
| 20260506191510 | 64 | 356 | 2.0 | 11.0 | 0.00 | 0.00 | 0.00 | 57 | 1013.1 |
| 20260506190026 | 63 | 70 | 3.0 | 8.0 | 0.00 | 0.00 | 0.00 | 57 | 1013.1 |
| 20260506184504 | 61 | 75 | 3.0 | 10.0 | 0.00 | 0.00 | 0.00 | 59 | 1013.3 |
| 20260506183127 | 61 | 96 | 5.0 | 10.0 | 0.00 | 0.00 | 0.00 | 59 | 1013.3 |
| 20260506181523 | 60 | 73 | 2.0 | 10.0 | 0.00 | 0.00 | 0.00 | 61 | 1013.3 |
| 20260506180011 | 59 | 94 | 4.0 | 10.0 | 0.00 | 0.00 | 0.00 | 61 | 1013.4 |
| 20260506174514 | 59 | 135 | 4.0 | 10.0 | 0.00 | 0.00 | 0.00 | 61 | 1013.3 |
| 20260506173140 | 58 | 70 | 4.0 | 12.0 | 0.00 | 0.00 | 0.00 | 62 | 1013.8 |
| 20260506171523 | 58 | 27 | 3.0 | 10.0 | 0.00 | 0.00 | 0.00 | 61 | 1013.8 |
| 20260506170008 | 56 | 60 | 5.0 | 12.0 | 0.00 | 0.00 | 0.00 | 63 | 1014.0 |
| 20260506164514 | 56 | 52 | 4.0 | 10.0 | 0.00 | 0.00 | 0.00 | 63 | 1014.2 |
| 20260506163117 | 56 | 72 | 3.0 | 10.0 | 0.00 | 0.00 | 0.00 | 63 | 1014.3 |
| 20260506161507 | 55 | 40 | 3.0 | 11.0 | 0.00 | 0.00 | 0.00 | 65 | 1014.7 |
| 20260506160014 | 54 | 89 | 4.0 | 14.0 | 0.00 | 0.00 | 0.00 | 64 | 1014.7 |
| 20260506154519 | 54 | 57 | 4.0 | 10.0 | 0.00 | 0.00 | 0.00 | 64 | 1014.9 |
| 20260506153116 | 54 | 92 | 2.0 | 11.0 | 0.00 | 0.00 | 0.00 | 64 | 1014.5 |
| 20260506151507 | 53 | 73 | 5.0 | 11.0 | 0.00 | 0.00 | 0.00 | 64 | 1014.6 |
| 20260506150013 | 53 | 27 | 3.0 | 11.0 | 0.00 | 0.00 | 0.00 | 64 | 1014.6 |
| 20260506144520 | 54 | 102 | 5.0 | 11.0 | 0.00 | 0.00 | 0.00 | 64 | 1014.3 |
| 20260506143005 | 53 | 87 | 3.0 | 12.0 | 0.00 | 0.00 | 0.00 | 65 | 1014.1 |
| 20260506141505 | 53 | 82 | 4.0 | 10.0 | 0.00 | 0.00 | 0.00 | 67 | 1013.6 |
| 20260506140020 | 52 | 6 | 4.0 | 11.0 | 0.00 | 0.00 | 0.00 | 68 | 1013.4 |
| 20260506134517 | 51 | 41 | 3.0 | 11.0 | 0.00 | 0.00 | 0.00 | 69 | 1013.4 |
| 20260506133115 | 51 | 65 | 3.0 | 10.0 | 0.00 | 0.00 | 0.00 | 70 | 1013.1 |
| 20260506131507 | 51 | 68 | 2.0 | 7.0 | 0.00 | 0.00 | 0.00 | 70 | 1012.9 |
| 20260506130018 | 51 | 75 | 3.0 | 7.0 | 0.00 | 0.00 | 0.00 | 70 | 1012.5 |
| 20260506124516 | 50 | 41 | 3.0 | 9.0 | 0.00 | 0.00 | 0.00 | 70 | 1012.1 |
| 20260506123005 | 51 | 46 | 2.0 | 8.0 | 0.00 | 0.00 | 0.00 | 70 | 1012.2 |
| 20260506121507 | 51 | 90 | 2.0 | 9.0 | 0.00 | 0.00 | 0.00 | 69 | 1012.1 |
| 20260506120026 | 51 | 47 | 0.0 | 7.0 | 0.00 | 0.00 | 0.00 | 70 | 1011.9 |
| 20260506114518 | 51 | 81 | 2.0 | 13.0 | 0.00 | 0.00 | 0.00 | 69 | 1011.7 |
| 20260506113008 | 51 | 96 | 2.0 | 8.0 | 0.00 | 0.00 | 0.00 | 69 | 1011.5 |
| 20260506111509 | 51 | 34 | 4.0 | 9.0 | 0.00 | 0.00 | 0.00 | 70 | 1011.3 |
| 20260506110020 | 51 | 304 | 2.0 | 6.0 | 0.00 | 0.00 | 0.00 | 71 | 1011.5 |
| 20260506104518 | 51 | 108 | 2.0 | 12.0 | 0.00 | 0.00 | 0.00 | 73 | 1011.5 |
| 20260506103102 | 50 | 359 | 0.0 | 9.0 | 0.00 | 0.00 | 0.00 | 74 | 1011.4 |
| 20260506101506 | 50 | 25 | 2.0 | 9.0 | 0.00 | 0.00 | 0.00 | 75 | 1011.0 |
| 20260506100016 | 50 | 82 | 1.0 | 10.0 | 0.00 | 0.00 | 0.00 | 77 | 1010.8 |
| 20260506094522 | 50 | 63 | 1.0 | 6.0 | 0.00 | 0.00 | 0.00 | 79 | 1010.7 |
| 20260506093106 | 50 | 122 | 2.0 | 11.0 | 0.00 | 0.00 | 0.00 | 80 | 1010.6 |
| 20260506091517 | 50 | 265 | 0.0 | 7.0 | 0.00 | 0.00 | 0.00 | 80 | 1010.7 |
| 20260506090023 | 50 | 47 | 2.0 | 9.0 | 0.00 | 0.00 | 0.00 | 81 | 1010.8 |
| 20260506084522 | 51 | 56 | 2.0 | 5.0 | 0.00 | 0.00 | 0.00 | 81 | 1010.7 |
| 20260506083107 | 51 | 34 | 0.0 | 5.0 | 0.00 | 0.00 | 0.00 | 81 | 1010.3 |
| 20260506081518 | 51 | 90 | 2.0 | 6.0 | 0.00 | 0.00 | 0.00 | 80 | 1010.0 |
| 20260506073120 | 51 | 15 | 2.0 | 11.0 | 0.00 | 0.00 | 0.00 | 79 | 1009.4 |
| 20260506071519 | 51 | 68 | 3.0 | 10.0 | 0.00 | 0.00 | 0.00 | 78 | 1009.7 |
| 20260506061506 | 51 | 96 | 3.0 | 7.0 | 0.00 | 0.00 | 0.00 | 79 | 1008.9 |
| 20260506044505 | 51 | 65 | 3.0 | 6.0 | 0.00 | 0.00 | 0.00 | 78 | 1008.6 |
| 20260506043113 | 52 | 70 | 2.0 | 6.0 | 0.00 | 0.00 | 0.00 | 77 | 1008.6 |
| 20260506041517 | 52 | 4 | 2.0 | 7.0 | 0.00 | 0.00 | 0.00 | 76 | 1008.5 |
| 20260506040032 | 52 | 100 | 4.0 | 12.0 | 0.00 | 0.00 | 0.00 | 75 | 1008.2 |
| 20260506034518 | 53 | 23 | 2.0 | 11.0 | 0.00 | 0.00 | 0.00 | 75 | 1008.1 |
| 20260506033006 | 53 | 59 | 3.0 | 7.0 | 0.00 | 0.00 | 0.00 | 74 | 1007.9 |
| 20260506031509 | 54 | 71 | 4.0 | 10.0 | 0.00 | 0.00 | 0.00 | 73 | 1008.1 |
| 20260506030015 | 54 | 59 | 3.0 | 12.0 | 0.00 | 0.00 | 0.00 | 74 | 1008.0 |
| 20260506024523 | 55 | 84 | 2.0 | 10.0 | 0.00 | 0.00 | 0.00 | 73 | 1007.6 |
| 20260506023106 | 55 | 32 | 2.0 | 9.0 | 0.00 | 0.00 | 0.00 | 73 | 1007.3 |
| 20260506021511 | 55 | 76 | 2.0 | 7.0 | 0.00 | 0.00 | 0.00 | 73 | 1007.3 |
| 20260506020020 | 55 | 54 | 1.0 | 9.0 | 0.00 | 0.00 | 0.00 | 73 | 1006.8 |
| 20260506014506 | 55 | 1 | 4.0 | 8.0 | 0.00 | 0.00 | 0.00 | 73 | 1006.4 |
| 20260506013106 | 55 | 96 | 1.0 | 9.0 | 0.00 | 0.00 | 0.00 | 73 | 1006.2 |
| 20260506011535 | 56 | 56 | 1.0 | 9.0 | 0.00 | 0.00 | 0.00 | 74 | 1005.7 |
| 20260506010020 | 56 | 4 | 3.0 | 8.0 | 0.00 | 0.00 | 0.00 | 75 | 1005.2 |
| 20260506004516 | 56 | 65 | 2.0 | 9.0 | 0.00 | 0.00 | 0.00 | 74 | 1005.2 |
| 20260506003102 | 57 | 65 | 3.0 | 8.0 | 0.00 | 0.00 | 0.00 | 74 | 1005.1 |
| 20260506001510 | 57 | 8 | 1.0 | 9.0 | 0.00 | 0.00 | 0.00 | 73 | 1005.0 |